Tracking 30298 objects as of 26-Apr-2025
HD Live streaming from Space Station
objects crossing your sky now

SKYNET 2B

Track SKYNET 2B now!
SKYNET 2B is classified as:


NORAD ID: 7547
Int'l Code: 1974-094A
Perigee: 35,781.0 km
Apogee: 35,803.7 km
Inclination: 4.6 °
Period: 1,436.0 minutes
Semi major axis: 42163 km
RCS: 3.166 m2 (large)
Launch date: November 23, 1974
Source: United Kingdom (UK)
Launch site: AIR FORCE EASTERN TEST RANGE (AFETR)
Your satellite tracking list
Your tracking list is empty




NASA's NSSDC Master Catalog

Two Line Element Set (TLE):
1 07547U 74094A   25115.81611142 -.00000011  00000-0  00000-0 0  9998
2 07547   4.6234 284.6256 0002687 174.6318  48.3401  1.00276763120577
Source of the keplerian elements: AFSPC